KC7YCE Weather Reports


Display with metric or nautical units.
time (UTC)temp
F
wind
direction
speed
MPH
gust
MPH
rain 1hr
in
rain 24hr
in
rain mn
in
humidity
%
barometer
mb
20260504214250 54 161 0.0 7.0 0.00 0.00 0.00 42 1015.9
20260504213250 55 167 1.0 7.0 0.00 0.00 0.00 40 1016.1
20260504211150 59 326 0.0 3.0 0.00 0.00 0.00 31 1015.8
20260504205120 59 312 3.0 4.0 0.00 0.00 0.00 31 1015.9
20260504204121 56 301 1.0 3.0 0.00 0.00 0.00 34 1015.8
20260504203120 56 266 1.0 3.0 0.00 0.00 0.00 33 1015.8
20260504192049 57 28 0.0 4.0 0.00 0.00 0.00 28 1016.1
20260504183049 55 127 0.0 1.0 0.00 0.00 0.00 30 1016.6
20260504175050 54 121 0.0 3.0 0.00 0.00 0.00 35 1017.0
20260504171018 58 248 0.0 3.0 0.00 0.00 0.00 33 1017.3
20260504150948 53 97 1.0 2.0 0.00 0.00 0.00 35 1017.9
20260504140947 44 135 0.0 0.0 0.00 0.00 0.00 51 1018.3
20260504081546 33 146 1.0 1.0 0.00 0.00 0.00 65 1018.6
20260504050245 36 150 0.0 2.0 0.00 0.00 0.00 58 1019.3
20260504045245 37 158 0.0 1.0 0.00 0.00 0.00 57 1019.2
20260504044245 38 158 0.0 1.0 0.00 0.00 0.00 55 1019.3
20260504043215 39 158 0.0 1.0 0.00 0.00 0.00 52 1019.3
20260504042215 40 137 0.0 2.0 0.00 0.00 0.00 52 1019.3
20260504041215 40 138 0.0 2.0 0.00 0.00 0.00 51 1019.2
20260504040215 40 137 0.0 2.0 0.00 0.00 0.00 51 1019.2
20260504035216 40 165 0.0 0.0 0.00 0.00 0.00 51 1019.3
20260504034215 40 276 0.0 0.0 0.00 0.00 0.00 49 1019.2
20260504032144 42 276 0.0 0.0 0.00 0.00 0.00 46 1019.0
20260504031146 43 277 0.0 0.0 0.00 0.00 0.00 44 1019.0
20260504030144 44 277 0.0 0.0 0.00 0.00 0.00 41 1018.9
20260504024114 46 277 0.0 0.0 0.00 0.00 0.00 38 1018.8
20260504023114 48 276 0.0 0.0 0.00 0.00 0.00 35 1018.8
20260504021114 51 277 0.0 0.0 0.00 0.00 0.00 30 1018.7
20260504020044 52 277 0.0 0.0 0.00 0.00 0.00 29 1018.6
20260504015045 53 277 0.0 1.0 0.00 0.00 0.00 26 1018.6
20260504014044 54 276 0.0 1.0 0.00 0.00 0.00 26 1018.6
20260504013044 54 277 0.0 1.0 0.00 0.00 0.00 26 1018.6
20260504012049 55 278 0.0 2.0 0.00 0.00 0.00 24 1018.7
20260504011045 56 276 0.0 2.0 0.00 0.00 0.00 25 1018.7
20260504010043 56 252 0.0 2.0 0.00 0.00 0.00 23 1018.7
20260504005043 57 251 0.0 2.0 0.00 0.00 0.00 23 1018.7
20260504004014 58 160 0.0 2.0 0.00 0.00 0.00 22 1018.8
20260504003013 58 167 0.0 1.0 0.00 0.00 0.00 23 1018.9
20260504002013 59 162 0.0 3.0 0.00 0.00 0.00 23 1018.9
20260503235013 61 304 3.0 3.0 0.00 0.00 0.00 21 1019.0
20260503234013 60 252 0.0 3.0 0.00 0.00 0.00 20 1019.1
20260503233016 60 315 1.0 2.0 0.00 0.00 0.00 22 1019.0
20260503232017 61 151 2.0 3.0 0.00 0.00 0.00 21 1019.1
20260503231013 59 252 1.0 3.0 0.00 0.00 0.00 22 1019.1
20260503230012 59 5 0.0 3.0 0.00 0.00 0.00 20 1019.1
20260503225159 61 269 1.0 3.0 0.00 0.00 0.00 20 1019.3
20260503225013 61 269 1.0 3.0 0.00 0.00 0.00 20 1019.3
20260503224012 62 261 2.0 3.0 0.00 0.00 0.00 21 1019.3
20260503222012 61 238 3.0 3.0 0.00 0.00 0.00 20 1019.4
20260503220942 61 156 0.0 3.0 0.00 0.00 0.00 23 1019.5
20260503214914 59 303 2.0 4.0 0.00 0.00 0.00 21 1019.9